Regional Weather Roundup
Issued by NWS

Home | Current Version | Previous Version | Text Only | Print | Product List | Glossary On
Versions: 1 2 3 4 5 6 7 8 9 10 11 12 13 14 15 16 17 18 19 20 21 22 23 24 25 26 27 28 29 30 31 32 33 34 35 36 37 38 39 40 41 42 43 44 45 46 47 48 49 50
000
ASUS44 KJAN 290710
RWRMS

MISSISSIPPI HOURLY WEATHER ROUNDUP
NATIONAL WEATHER SERVICE JACKSON MS
100 AM CST THU JAN 29 2015

NOTE: "FAIR: INDICATES FEW OR NO CLOUDS BELOW 12,000 FEET WITH NO
SIGNIFICANT WEATHER AND/OR OBSTRUCTIONS TO VISIBILITY.

MSZ001>002-007>008-010>013-018>021-025>028-034>036-290800-
NORTHWEST MISSISSIPPI

CITY           SKY/WX    TMP DP  RH WIND       PRES   REMARKS
CLARKSDALE     FAIR      54  39  58 S15       30.09F
CLEVELAND      FAIR      51  43  72 S13       30.10F
GREENWOOD      MOCLDY    53  37  54 S10       30.14S
GREENVILLE     PTCLDY    50  41  71 S12       30.11S
GRENADA        FAIR      50  36  57 S5        30.14S
OLIVE BRANCH   CLEAR     52  36  54 S14       30.07F
OXFORD         FAIR      50  32  50 S8        30.13R
TUNICA         MOSUNNY   50  39  66 S8        30.08F
$$

MSZ003>006-009-014>017-022>024-029>033-037>039-290800-
NORTHEAST MISSISSIPPI

CITY           SKY/WX    TMP DP  RH WIND       PRES   REMARKS
COLUMBUS AFB   MOCLDY    39  31  74 SE7       30.19S WCI  34
CORINTH        PTSUNNY   46  32  57 SE10      30.11F
GOLDN TRIANGLE MOCLDY    45  30  57 S8        30.17F
STARKVILLE     FAIR      45  32  61 S3        30.18S
TUPELO         CLOUDY    46  31  55 S10       30.15F
$$

MSZ040-058-290800-
CENTRAL MISSISSIPPI

CITY           SKY/WX    TMP DP  RH WIND       PRES   REMARKS
JACKSON INTL   PTCLDY    50  37  61 S9        30.19F
JACKSON HAWKNS NOT AVBL
MERIDIAN KEY   PTCLDY    40  34  79 S3        30.22S
MERIDIAN NAS   PTCLDY    41  30  65 SE5       30.22S
RAYMOND        FAIR      54  48  82 MISG      30.18F
VICKSBURG      CLEAR     54  40  59 S10       30.17F
$$

MSZ059>079-290800-
SOUTH MISSISSIPPI

CITY           SKY/WX    TMP DP  RH WIND       PRES   REMARKS
BROOKHAVEN     FAIR      48  41  76 SW5       30.22F
HATTIESBURG    PTCLDY    42  39  89 CALM      30.24R
MCCOMB         CLEAR     46  40  79 CALM      30.22S
NATCHEZ        CLEAR     52  39  62 S8        30.20F
PINE BELT      PTCLDY    41  25  52 CALM      30.24R
$$

MSZ080>082-290800-
COASTAL MISSISSIPPI

CITY           SKY/WX    TMP DP  RH WIND       PRES   REMARKS
BILOXI         PTCLDY    45  45 100 E1        30.23S FOG
PASCAGOULA     PTCLDY    39  38  96 CALM      30.24R FOG
GULFPORT       CLEAR     43  40  89 CALM      30.23R
$$



USA.gov is the U.S. government's official web portal to all federal, state and local government web resources and services.